カタログに戻る

DIRECTV 14

運用中通信GEO
NORAD 40333·PAYLOAD·🇺🇸 United States

打ち上げ Dec 6, 2014 から Guiana Space Centre

Loading…

TLE

最新Source: Space-Track

元期: Sep 14, 2026, 15:28 UTC

1 40333U 14078B   26257.64454825 -.00000133  00000-0  00000-0 0  9991
2 40333   0.0146  86.7277 0000721 349.2822  50.4042  1.00271254 42949

AllMySatでDIRECTV 14をリアルタイム追跡

Download on the App Store